Other Surface Observations
Issued by NWS Charleston, SC

Home | Current Version | Previous Version | Text Only | Print | Product List | Glossary On
Versions: 1 2 3 4 5 6 7 8 9 10 11 12 13 14 15 16 17 18 19 20 21 22 23 24 25 26 27 28 29 30 31 32 33 34 35 36 37 38 39 40 41 42 43 44 45 46 47 48 49 50
000
SXUS52 KCHS 170627
OSOCHS

MARINE OBSERVATIONS
NATIONAL WEATHER SERVICE CHARLESTON SC
200 AM EDT TUE OCT 17 2017

...DOWNTOWN CHARLESTON AND HARBOR...

CITY           SKY/WX    TMP DP  RH WIND       PRES   REMARKS
WATERFRONT PRK NOT AVBL

...LAKE MOULTRIE...

CITY           SKY/WX    TMP DP  RH WIND       PRES   REMARKS
PINOPOLIS        N/A     61  57  88 NE15      30.08S

...LAKE AND SUPPLEMENTAL COASTAL OBSERVATIONS...

STATION/POSITION TIME  TEMP    WIND        PRES    WAVE   SWELL
                       AIR SEA DIR/SP/G            HT/PER HT/PER/DIR
                 (UTC) (F)     (DEG/KT/KT) (MB)    (FT/S) (FT/S/D)
FORT PULASKI     0600   65 79   30/ 15/ 19 1020.8
SAPELO ISLAND    0600   66      30/ 17     1019.0
WINYAH BAY       0530   60      20/  8     1021.0S
LAKE MURRAY      0620   54      10/  2/  5 1023.0
ACE BASIN NERRS  0545   60      20/  5     1021.0S


...C-MAN AND BUOY OBSERVATIONS...

STATION/POSITION TIME  TEMP    WIND        PRES    WAVE   SWELL
                       AIR SEA DIR/SP/G            HT/PER HT/PER/DIR
                 (UTC) (F)     (DEG/KT/KT) (MB)    (FT/S) (FT/S/D)
BUOY 41004       0610   70 81   20/ 27/ 35 1018.4
BUOY 41008       0550   70 79   40/ 29/ 35 1017.8R   8/ 6
FOLLY BEACH CMAN 0600   62      20/ 17/ 21 1021.3R
CAPERS NS BUOY   0608   63 77   30/ 21/ 31 1019.9R
FRIPP NS BUOY    0608   66      40/ 23/ 31   N/A
5E ST. MARYS GA  0600      80                N/A     7/ 6


STATION/POSITION TIME  TEMP    WIND        PRES    WAVE   SWELL
                       AIR SEA DIR/SP/G            HT/PER HT/PER/DIR
                 (UTC) (F)     (DEG/KT/KT) (MB)    (FT/S) (FT/S/D)
FRYING PAN BUOY  0610   67 78   20/ 29/ 35 1018.9
BUOY 41025       0550   66 81   20/ 27/ 31 1018.7F   8/ 7   2/ 60/12
CAPE LOOKOUT NC  0600   62      20/ 19/ 24 1020.0S
BUOY 41002       0550   78 80  240/  4/  6 1013.8F   4/10   5/ 80/10
BUOY 41010       NOT AVBL
ST AUGUSTINE FL  0600   72 81  320/  7/ 10 1016.4S

$$




USA.gov is the U.S. government's official web portal to all federal, state and local government web resources and services.